AO-07 1 07530U 74089B 18312.54701757 -.00000044 00000-0 31336-5 0 9994 2 07530 101.7090 277.8059 0012476 056.4121 051.9942 12.53635288012446 UO-11 1 14781U 84021B 18312.59105226 .00000087 00000-0 16806-4 0 9991 2 14781 097.6350 342.5346 0007805 338.7933 021.2956 14.83042266844845 LO-19 1 20442U 90005G 18312.82701569 .00000003 00000-0 17438-4 0 9999 2 20442 98.6228 250.5023 0012916 83.9877 276.2779 14.32909328504603 HUBBLE 1 20580U 90037B 18312.88031104 .00000507 00000-0 20064-4 0 9992 2 20580 28.4690 238.5449 0002501 254.8367 169.7543 15.09126746367343 MET-2/21 1 22782U 93055A 18312.63895903 .00000010 00000-0 -43522-5 0 9994 2 22782 082.5478 339.2941 0023559 082.2979 034.6206 13.83812788271885 AO-27 1 22825U 93061C 18312.84414893 -.00000017 00000-0 11334-4 0 9999 2 22825 98.8805 291.7045 0007414 287.9562 72.0811 14.30043742310249 IO-26 1 22826U 93061D 18312.82744552 .00000000 00000-0 17890-4 0 9990 2 22826 98.8745 291.7070 0007882 275.8566 84.1717 14.30376109310436 FO-29 1 24278U 96046B 18312.57018345 -.00000012 00000-0 20139-4 0 9999 2 24278 098.5140 131.4249 0351369 096.2556 267.8722 13.53086850097511 NOAA-15 1 25338U 98030A 18312.60586485 .00000028 00000-0 30548-4 0 9992 2 25338 98.7633 329.0940 0010791 162.8146 197.3400 14.25882407 65604 GO-32 1 25397U 98043D 18312.39027473 -.00000019 00000-0 10773-4 0 9993 2 25397 098.6632 250.5200 0001134 017.1163 343.0054 14.23654496056020 ISS 1 25544U 98067A 18312.89913194 .00003824 00000-0 65431-4 0 9999 2 25544 51.6413 17.5747 0004902 26.0616 315.1971 15.53935447141019 NO-44 1 26931U 01043C 18312.17155237 -.00000002 00000-0 30913-4 0 9998 2 26931 67.0515 217.8783 0006639 258.6135 101.4221 14.30522444893142 SO-50 1 27607U 02058C 18312.57993111 .00000026 00000-0 24499-4 0 9998 2 27607 064.5563 008.6441 0077719 298.7526 060.5784 14.75494574854137 CO-55 1 27844U 03031E 18312.61189144 .00000052 00000-0 43005-4 0 9994 2 27844 098.6870 319.1400 0009077 318.6216 041.4273 14.22142747796684 CO-57 1 27848U 03031J 18312.75234423 .00000038 00000-0 37045-4 0 9995 2 27848 98.6953 319.7221 0009118 329.8904 30.1748 14.21743156796605 RS-22 1 27939U 03042A 18312.72400836 .00000034 00000-0 14703-4 0 9990 2 27939 98.0105 88.3107 0013949 55.4344 304.8175 14.66729741808004 NOAA-18 1 28654U 05018A 18312.55199970 .00000011 00000-0 30829-4 0 9997 2 28654 99.1293 350.8307 0015258 83.4092 276.8815 14.12389314694162 CO-58 1 28895U 05043F 18312.39356153 .00000137 00000-0 35240-4 0 9993 2 28895 097.9290 098.1872 0016196 338.0415 022.0092 14.63599146694734 Falconsat-3 1 30776U 07006E 18312.60987375 .00002118 00000-0 62052-4 0 9997 2 30776 035.4363 066.9233 0003585 264.3532 095.6786 15.35175583646521 CO-65 1 32785U 08021C 18312.74490648 .00000228 00000-0 30297-4 0 9990 2 32785 97.5468 318.0222 0011580 280.4560 79.5353 14.88201989570671 AAUSAT2 1 32788U 08021F 18312.58104935 .00000179 00000-0 21629-4 0 9990 2 32788 097.5121 333.0079 0010892 219.0884 140.9551 14.94503139571649 DO-64 1 32789U 08021G 18312.73365338 .00000986 00000-0 70891-4 0 9995 2 32789 97.4957 3.7798 0013102 157.8608 202.3187 15.06433679573549 CO-66 1 32791U 08021J 18312.59630966 .00000359 00000-0 41938-4 0 9998 2 32791 97.5320 323.5390 0011941 256.1715 103.8175 14.90665763571025 RS-30 1 32953U 08025A 18312.91092036 .00000020 00000-0 75656-4 0 9997 2 32953 82.5005 282.6657 0017869 254.5678 105.3430 12.43086468474753 PRISM 1 33493U 09002B 18312.81250843 .00000178 00000-0 21294-4 0 9997 2 33493 98.1190 220.3719 0014485 195.3326 164.7468 14.96390527531974 NOAA-19 1 33591U 09005A 18312.59405701 .00000046 00000-0 50452-4 0 9991 2 33591 99.1589 293.6031 0013027 282.9668 77.0048 14.12316755502550 TISAT-1 1 36799U 10035E 18312.61724963 .00000484 00000-0 55086-4 0 9990 2 36799 098.1269 092.8564 0013623 094.7859 265.4915 14.90926650451477 JUGNU 1 37839U 11058B 18312.17475319 .00000331 00000-0 34994-4 0 9997 2 37839 19.9609 244.1297 0018941 34.6961 100.4595 14.12633826365753 SRMSAT 1 37841U 11058D 18312.25434432 .00000303 00000-0 21409-4 0 9996 2 37841 019.9727 295.8229 0011647 273.0608 201.8099 14.10618412365159 AO-71 1 37854U 11061E 18312.34927930 .00000856 00000-0 52138-4 0 9990 2 37854 101.7093 91.1878 0162381 5.8438 354.4619 15.05861749383522 HRBE 1 37855U 11061F 18312.30701327 .00000976 00000-0 57297-4 0 9991 2 37855 101.7217 88.6006 0175251 15.6024 345.0493 15.04856966383323 ALMASAT-1 1 38078U 12006B 18312.86942755 .00024826 40665-5 18574-3 0 9992 2 38078 69.4310 174.0348 0215500 245.4668 207.3542 15.48423941362999 HORYU-2 1 38340U 12025D 18312.64534003 .00000196 00000-0 36784-4 0 9996 2 38340 98.3557 339.2520 0012776 109.9087 250.3499 14.75623775348417 RS-40 1 38735U 12041C 18312.48123434 -.00000009 00000-0 -13324-3 0 9995 2 38735 082.4803 006.6520 0016719 003.8575 356.2624 12.42577163284958 BEESAT-3 1 39135U 13015F 18312.67766459 .00001183 00000-0 69388-4 0 9997 2 39135 64.8709 34.6345 0009187 252.6532 107.3589 15.16996323306560 BEESAT-2 1 39136U 13015G 18312.63293087 .00001011 00000-0 61657-4 0 9997 2 39136 64.8708 37.9614 0011069 246.0476 113.9491 15.16445506306490 ZACUBE-1 1 39417U 13066B 18312.63306510 .00000241 00000-0 36674-4 0 9996 2 39417 97.5768 333.4805 0060024 43.0676 317.5211 14.81006214268173 TRITON-1 1 39427U 13066M 18312.55870301 .00000161 00000-0 33441-4 0 9992 2 39427 097.6535 299.0163 0114483 156.1962 204.4599 14.67737419265569 GOMX-1 1 39430U 13066Q 18312.72408398 .00000135 00000-0 33755-4 0 9997 2 39430 97.7149 279.3224 0150049 234.2456 124.4715 14.59151416264230 LO-74 1 39440U 13066AA 18312.56632926 .00000233 00000-0 39151-4 0 9991 2 39440 097.5996 319.2141 0081874 086.6981 274.3592 14.75745742266017 AO-73 1 39444U 13066AE 18312.61952878 .00000288 00000-0 41819-4 0 9996 2 39444 097.5768 335.1720 0059015 038.0429 322.4929 14.81804470266456 SPROUT 1 39770U 14029E 18312.73550707 .00000842 00000-0 99933-4 0 9992 2 39770 97.8808 52.6361 0010248 94.5654 265.6771 14.87046632241843 DUCHIFAT-1 1 40021U 14033M 18312.33937247 .00000525 00000-0 59651-4 0 9993 2 40021 97.9156 231.3065 0014293 65.3679 294.9025 14.90435466238423 NANOSATCBR1 1 40024U 14033Q 18312.31823192 .00000456 00000-0 53581-4 0 9996 2 40024 097.9076 229.2301 0013628 068.1016 292.1649 14.89679973237818 EO-79 1 40025U 14033R 18312.31536651 .00000349 00000-0 43200-4 0 9996 2 40025 097.9022 227.3833 0013875 072.6806 287.5928 14.88807417237723 DTUSAT-2 1 40030U 14033W 18312.31862876 .00000315 00000-0 39991-4 0 9998 2 40030 97.8958 225.8885 0013299 68.4532 291.8101 14.88408617238175 EO-80 1 40032U 14033Y 18312.71867798 .00000317 00000-0 40252-4 0 9996 2 40032 97.8966 226.2889 0013235 67.9147 292.3474 14.88348335238226 ANTELSAT 1 40034U 14033AA 18312.59716606 .00000252 00000-0 44767-4 0 9998 2 40034 097.7882 183.7846 0060175 092.5809 268.2290 14.73995348235421 VELOX-1 1 40057U 14034E 18312.76367514 .00000296 00000-0 49108-4 0 9995 2 40057 98.2159 66.4171 0010184 219.8090 140.2373 14.77523527234990 DAURIA DX 1 1 40071U 14037C 18312.85008096 .00000110 00000-0 21596-4 0 9997 2 40071 98.3957 90.8488 0007759 209.8535 150.2238 14.81205991234417 HODOYOSHI-1 1 40299U 14070B 18312.87028703 .00000771 00000-0 35588-4 0 9994 2 40299 97.3696 32.0336 0014690 100.1030 352.5205 15.23094247222508 CHUBUSAT-1 1 40300U 14070C 18312.76474010 .00000738 00000-0 35391-4 0 9996 2 40300 97.3526 27.2973 0021192 113.3194 1.0917 15.21782578222266 QSAT-EOS 1 40301U 14070D 18312.74692916 .00002223 00000-0 90416-4 0 9992 2 40301 97.3499 29.1962 0028049 101.9937 13.8890 15.25225510222455 FIREBIRD FU3 1 40377U 15003B 18312.52430950 .00001836 00000-0 77171-4 0 9998 2 40377 099.0851 242.8884 0130730 110.1719 251.3627 15.17787768208200 FIREBIRD FU4 1 40378U 15003C 18312.77607632 .00001823 00000-0 76581-4 0 9999 2 40378 99.0854 243.2552 0130980 109.2230 252.3224 15.17795854208259 GRIFEX 1 40379U 15003D 18312.76370014 .00001244 00000-0 57526-4 0 9995 2 40379 99.0851 238.6297 0138122 124.0363 237.4070 15.14754766207985 NO-84 1 40654U 15025D 18312.42797641 .00015007 00000-0 22279-3 0 04529 2 40654 054.9879 103.5785 0153249 116.6626 245.0258 15.43100117078097 NO-83 1 40655U 15025E 18312.34678908 .00040874 00000-0 34599-3 0 05322 2 40655 054.9747 028.6337 0091445 159.7434 200.6714 15.63949062078788 DEORBITSAIL 1 40719U 15032E 18312.59992073 .00000434 00000-0 69424-4 0 9991 2 40719 097.9278 203.6353 0015512 306.1585 053.8189 14.76557892179486 NUDT-PHONESAT 1 40900U 15049B 18312.73938880 .00002324 00000-0 10505-3 0 9998 2 40900 97.4406 319.3804 0011668 240.7255 231.5699 15.21898570173899 XW-2A 1 40903U 15049E 18312.75624831 .00002211 00000-0 55546-4 0 9991 2 40903 97.3699 348.9726 0012365 223.9350 199.7813 15.41035231176064 XW-2C 1 40906U 15049H 18312.74892551 .00000617 00000-0 36175-4 0 9994 2 40906 97.4633 313.6377 0013132 249.0956 165.0393 15.15384287173381 XW-2D 1 40907U 15049J 18312.88216507 .00000588 00000-0 34459-4 0 9991 2 40907 97.4615 313.4539 0012554 245.4043 156.6454 15.15549414173417 LILACSAT-2 1 40908U 15049K 18312.86977823 .00000583 00000-0 36021-4 0 9997 2 40908 97.4724 312.6071 0014324 248.8637 153.8717 15.13629665173252 XW-2E 1 40909U 15049L 18312.68955591 .00000989 00000-0 52937-4 0 9990 2 40909 97.4592 315.5664 0012034 244.5591 175.2105 15.17320406173528 XW-2F 1 40910U 15049M 18312.71611486 .00001179 00000-0 63258-4 0 9998 2 40910 97.4612 314.8700 0013418 238.7513 182.6969 15.16838917173364 XW-2B 1 40911U 15049N 18312.78474976 .00000635 00000-0 36987-4 0 9992 2 40911 97.4644 313.9461 0012602 245.9227 219.1765 15.15488834173290 DCBB 1 40912U 15049P 18312.74958456 .00001250 00000-0 62753-4 0 9993 2 40912 97.4508 318.0725 0013650 223.3193 191.0419 15.19093625173619 TW-1C 1 40926U 15051B 18312.86501485 .00012271 00000-0 20913-3 0 9996 2 40926 97.1696 354.6201 0011120 108.6757 337.8845 15.51439041175724 TW-1A 1 40928U 15051D 18312.87164854 .00003739 00000-0 97252-4 0 9994 2 40928 97.1722 343.9554 0011917 148.6231 321.1604 15.39461939175033 IO-86 1 40931U 15052B 18312.06291349 .00000824 00000-0 25733-4 0 9997 2 40931 6.0055 204.0947 0013429 249.9019 109.9919 14.76591925168309 LQSat 1 40958U 15057A 18312.85136768 -.00000005 00000-0 69294-5 0 9994 2 40958 97.9273 22.7059 0017011 231.1836 128.7850 14.73054710166145 AO-85 1 40967U 15058D 18312.47283695 .00000220 00000-0 40316-4 0 04991 2 40967 064.7754 113.1844 0213873 270.2859 087.3756 14.75812028074948 ATHENOXAT-1 1 41168U 15077C 18312.91416667 .00002236 00000-0 84904-4 0 9997 2 41168 14.9910 40.7766 0011656 250.8775 71.7933 15.13120018160323 ChubuSat-2 1 41338U 16012B 18312.58088646 .00000338 00000-0 19672-4 0 9992 2 41338 031.0024 116.1994 0013667 062.8459 297.3569 15.00051188149531 ChubuSat-3 1 41339U 16012C 18312.57685643 .00000394 00000-0 23990-4 0 9992 2 41339 31.0099 114.6202 0013605 69.1477 291.0612 15.00234117149525 Horyu-4 1 41340U 16012D 18312.68771867 .00000512 00000-0 32345-4 0 9996 2 41340 31.0045 107.3720 0013832 86.1480 274.0737 15.01099690149623 OUFTI-1 1 41458U 16025C 18312.72374397 .00001823 00000-0 97357-4 0 9992 2 41458 98.1239 23.2207 0169088 23.4693 337.4134 15.05126588139189 e-st@r-II 1 41459U 16025D 18312.69157587 .00001109 00000-0 61344-4 0 9993 2 41459 98.1229 22.9627 0170203 24.2845 336.6301 15.04814225139155 AAUSAT4 1 41460U 16025E 18312.79021485 .00002413 00000-0 12643-3 0 9999 2 41460 98.1178 23.8198 0160511 18.9407 341.7697 15.06431540139251 LO-87 1 41557U 16033B 18312.88930107 .00001301 00000-0 51698-4 0 9994 2 41557 97.4314 36.6286 0013044 6.8338 353.3076 15.27075245136244 NuSat2 1 41558U 16033C 18312.86717713 .00001423 00000-0 53913-4 0 9996 2 41558 97.4335 36.9583 0013301 11.8126 348.3423 15.28517755136246 Lapan A3 1 41603U 16040E 18312.75127652 .00000300 00000-0 17239-4 0 9994 2 41603 97.3951 11.5077 0015216 94.3483 28.6184 15.19630187132036 Swayam 1 41607U 16040J 18312.39069179 .00001683 00000-0 75134-4 0 9990 2 41607 097.3970 013.2737 0015348 092.8542 267.4451 15.22654894132044 Pratham 1 41783U 16059A 18312.45347008 .00000067 00000-0 22355-4 0 9994 2 41783 098.1007 011.5511 0033574 004.9029 355.2495 14.62953665113050 AlSat 1N 1 41789U 16059G 18312.69917781 .00000076 00000-0 23589-4 0 9997 2 41789 98.1030 13.3157 0028159 355.7550 4.3409 14.64192610113163 ScatSat 1 41790U 16059H 18312.72510292 .00000021 00000-0 16507-4 0 9991 2 41790 98.2424 357.7590 0018529 12.0736 348.0900 14.50879311112144 TY-1 1 41844U 16066D 18312.90294144 .00001754 00000-0 75951-4 0 9996 2 41844 97.4067 317.9933 0013684 247.9157 203.4109 15.23677754110916 Pegasus-1 1 41846U 16066F 18312.56079863 .00000256 00000-0 49219-4 0 9993 2 41846 098.7412 343.8983 0368174 178.2168 182.0432 14.37433618104641 CAS-2T 1 41847U 16066G 18312.70970595 .00000046 00000-0 17402-4 0 9998 2 41847 98.7366 344.5458 0366314 174.8958 185.6131 14.37934185105098 TO-89 1 41932U 98067KU 18312.22833644 .00120844 16645-4 35894-3 0 9993 2 41932 051.6266 311.8078 0006411 054.4406 305.7198 15.92277390103574 EO-88 1 42017U 17008BX 18312.81227696 .00001637 00000-0 68766-4 0 9990 2 42017 97.4327 16.9184 0005227 219.3867 140.6991 15.24871936 96101 HAVELSAT 1 42700U 98067LH 18312.86745086 .00062735 00000-0 29658-3 0 9998 2 42700 51.6278 329.7672 0005463 63.1612 296.9949 15.82395966 84832 SOMP2 1 42701U 98067LJ 18312.47944786 .00059301 00000-0 31098-3 0 9990 2 42701 051.6342 334.7468 0005113 055.9351 304.2136 15.80173785084725 PHOENIX 1 42706U 98067LP 18312.57626819 .00033995 00000-0 21380-3 0 9994 2 42706 051.6299 336.9230 0003178 026.6607 333.4556 15.76372504084624 X-CubeSat 1 42707U 98067LQ 18312.43292445 .00083821 00000-0 35541-3 0 9991 2 42707 51.6289 330.5154 0005079 40.4957 319.6424 15.84590454 84684 qbee 1 42708U 98067LR 18312.50762239 .00065566 00000-0 31559-3 0 9994 2 42708 051.6291 332.6330 0003900 043.9081 316.2231 15.82002241084627 ZA-AeroSat 1 42713U 98067LU 18312.48368807 .00037988 00000-0 25481-3 0 9994 2 42713 051.6342 341.5571 0003771 023.0297 337.0871 15.74835323084212 UPSat 1 42716U 98067LX 18312.71028111 .01237261 11102-2 87922-3 0 9996 2 42716 51.6188 314.8638 0006421 71.8938 288.2777 16.15621203 84711 SpaceCube 1 42717U 98067LY 18312.54687372 .00063751 00000-0 30918-3 0 9994 2 42717 051.6248 332.8164 0004767 058.2873 301.8593 15.81845521083700 Hoopoe 1 42718U 98067LZ 18312.51615107 .00145403 19001-4 44373-3 0 9999 2 42718 051.6251 325.0139 0006363 054.2680 305.8917 15.91666019083806 NJUST-1 1 42722U 98067MB 18312.60664557 .00035412 00000-0 25554-3 0 9990 2 42722 51.6390 343.7311 0006085 52.6075 38.4048 15.73153305 83268 UNSW-EC0 1 42723U 98067MC 18312.40020231 .00254726 37381-4 55837-3 0 9998 2 42723 51.6356 323.6156 0008203 57.1132 303.0666 15.97615402 83492 LO-90 1 42725U 98067ME 18312.57800089 .00063414 00000-0 35427-3 0 9994 2 42725 51.6361 337.3869 0006042 49.3097 89.0116 15.78743380 83256 nSIGHT1 1 42726U 98067MF 18312.51132898 .00011792 00000-0 12577-3 0 9998 2 42726 051.6391 358.4542 0005691 051.9668 308.1840 15.64431389082979 SNUSAT 1B 1 42727U 98067MG 18312.57054213 .00048609 00000-0 27538-3 0 9999 2 42727 51.6317 337.5486 0006909 33.0560 327.0872 15.78534958 83212 QBITO 1 42728U 98067MH 18312.33323474 .00078490 00000-0 36301-3 0 9991 2 42728 51.6332 333.8278 0004963 48.7064 311.4365 15.82781107 83082 Aalto-2 1 42729U 98067MJ 18312.51479274 .00076219 00000-0 33287-3 0 9999 2 42729 051.6275 331.8964 0004939 049.2832 310.8599 15.84007475083130 SUSat 1 42730U 98067MK 18312.60400770 .00051544 00000-0 27729-3 0 9994 2 42730 51.6334 335.5702 0004457 50.3592 309.7802 15.79674873 83084 i-INSPIRE II 1 42731U 98067ML 18312.47762893 .00390729 77804-4 67182-3 0 9995 2 42731 051.6303 320.9695 0008036 050.2770 309.8947 16.01789040083310 PolyITAN-2-SAU 1 42732U 98067MM 18312.52824193 .00078552 00000-0 33978-3 0 9997 2 42732 051.6305 331.2221 0006910 032.3451 327.7975 15.84181029083187 ExAlta-1 1 42734U 98067MP 18312.69856144 .00938128 54246-3 81420-3 0 9991 2 42734 51.6164 316.9592 0007572 65.3564 294.8239 16.12615033 83332 Aoxiang-1 1 42735U 98067MQ 18312.66016497 .00038762 00000-0 27140-3 0 9998 2 42735 51.6381 342.5296 0006233 53.4708 47.0887 15.73814050 84414 BeEagleSat 1 42736U 98067MR 18312.31496478 .00044441 00000-0 27084-3 0 9990 2 42736 51.6318 340.3926 0006528 47.7578 312.3975 15.76937576 83102 CAS-4B 1 42759U 17034B 18312.60699000 .00000209 00000-0 26414-4 0 9999 2 42759 43.0198 10.3653 0011478 291.4315 190.5396 15.09413002 77279 CAS-4A 1 42761U 17034D 18312.57999017 .00000280 00000-0 30707-4 0 9998 2 42761 43.0201 10.1869 0011787 292.8498 181.4059 15.09490061 77268 UCLSat 1 42765U 17036A 18312.71492413 .00001338 00000-0 61244-4 0 9993 2 42765 97.3839 10.1235 0010124 292.8028 67.2138 15.22199191 76691 NIUSat 1 42766U 17036B 18312.78087619 .00001022 00000-0 49561-4 0 9997 2 42766 97.3838 9.1415 0014222 278.9268 81.0357 15.20676692 76504 LituanicaSAT 2 1 42768U 17036D 18312.41345976 .00002217 00000-0 10016-3 0 9991 2 42768 097.3863 009.3829 0013842 281.5406 078.4276 15.21930420076497 Aalto 1 1 42775U 17036L 18312.38565549 .00000780 00000-0 38270-4 0 9991 2 42775 097.3830 009.0231 0012491 280.8889 079.0941 15.20979866076413 URSA MAIOR 1 42776U 17036M 18312.16640612 .00000955 00000-0 45985-4 0 9998 2 42776 97.3838 8.8919 0012334 281.8848 78.1005 15.21081370 76386 Max Valier Sat 1 42778U 17036P 18312.60918328 .00001056 00000-0 49813-4 0 9998 2 42778 097.3867 009.8092 0010901 285.3407 074.6624 15.21593819076464 Pegasus 1 42784U 17036V 18312.70538779 .00001211 00000-0 56059-4 0 9997 2 42784 97.3842 10.0026 0010665 292.7686 67.2423 15.21990667 76493 NUDATSat 1 42787U 17036Y 18312.62813721 .00001535 00000-0 68761-4 0 9996 2 42787 097.3871 010.2873 0011087 299.0608 060.9517 15.22711645076349 SUCHAI 1 1 42788U 17036Z 18312.70034516 .00001446 00000-0 65698-4 0 9990 2 42788 97.3844 10.1635 0010254 292.4668 67.5482 15.22315915 76572 SKCUBE 1 42789U 17036AA 18312.57298922 .00001349 00000-0 61603-4 0 9993 2 42789 097.3842 010.0178 0010111 293.0478 066.9692 15.22252856076479 VZLUSAT 1 1 42790U 17036AB 18312.61591411 .00001744 00000-0 77702-4 0 9995 2 42790 097.3850 010.2790 0009685 292.5338 067.4873 15.22725674076497 VENTA 1 1 42791U 17036AC 18312.61632740 .00001226 00000-0 56230-4 0 9995 2 42791 097.3841 010.1075 0009753 293.7157 066.3056 15.22284594076471 Robusta 1B 1 42792U 17036AD 18312.72452656 .00001350 00000-0 61375-4 0 9998 2 42792 97.3840 10.2599 0009661 293.5706 66.4515 15.22411601 76516 D-SAT 1 42794U 17036AF 18312.80979264 .00000337 00000-0 34667-4 0 9996 2 42794 97.5735 1.8648 0127456 160.2406 200.3816 14.90961674 75273 BIRD-J 1 42820U 98067MU 18312.54189281 .00038869 00000-0 25067-3 0 9996 2 42820 051.6333 342.6814 0004177 016.6876 343.4260 15.75727163076571 BIRD-G 1 42821U 98067MV 18312.47300085 .00036847 00000-0 24996-3 0 9990 2 42821 051.6320 344.4836 0004244 012.7591 347.3515 15.74586988076526 BIRD-M 1 42822U 98067MW 18312.48356289 .00039220 00000-0 25902-3 0 9995 2 42822 051.6336 343.8056 0004250 018.2156 341.8995 15.75175937076537 BIRD-B 1 42823U 98067MX 18312.46474715 .00040140 00000-0 26206-3 0 9990 2 42823 051.6328 343.7068 0006154 023.0412 337.0862 15.75417649076534 BIRD-N 1 42824U 98067MY 18312.45222303 .00040636 00000-0 27018-3 0 9996 2 42824 051.6340 344.3978 0005910 024.5238 335.6042 15.74993743076523 TechnoSat 1 42829U 17042E 18312.86751142 .00000310 00000-0 36788-4 0 9998 2 42829 97.5824 209.6511 0015751 79.3113 280.9878 14.90883497 71888 TOMSK-TPU 120 1 42910U 98067MZ 18312.70211870 .00027082 00000-0 23037-3 0 9994 2 42910 51.6367 351.8420 0006671 32.5364 62.2353 15.69364175 70030 TANYUSHA 1 1 42911U 98067NA 18312.68027843 .00035535 00000-0 27552-3 0 9995 2 42911 51.6375 349.4903 0006519 31.2506 60.0832 15.71447914 70049 TANYUSHA 2 1 42912U 98067NB 18312.68846245 .00032250 00000-0 26161-3 0 9997 2 42912 51.6420 351.0598 0005883 37.0896 56.0336 15.70420063 70048 SFERA 2 1 42913U 98067NC 18312.87061861 .00320920 53351-4 68394-3 0 9991 2 42913 51.6338 327.3889 0006043 55.3589 304.7809 15.98103271 70347 TNS 0-2 1 42914U 98067ND 18312.68428044 .00020578 00000-0 17766-3 0 9993 2 42914 51.6352 352.7429 0005597 35.0808 325.0556 15.69192905 70017 QIKCOM-1 1 42983U 98067NF 18312.71122778 .00003154 00000-0 49202-4 0 9990 2 42983 51.6408 13.3037 0004484 23.1470 336.9723 15.57231952 58732 AO-91 1 43017U 17073E 18312.80524863 .00000443 00000-0 39990-4 0 9999 2 43017 97.7134 237.9555 0259595 160.5309 200.6045 14.78261610 52474 EcAMSat 1 43019U 98067NG 18312.43110721 .00005487 00000-0 76699-4 0 9996 2 43019 51.6414 12.9482 0004975 358.1994 1.8980 15.58584267141036 PICSAT 1 43132U 18004X 18312.73694098 .00001429 00000-0 63809-4 0 9993 2 43132 97.5181 15.7022 0008709 320.0621 39.9973 15.23003368 45719 AO-92 1 43137U 18004AC 18312.72153657 .00001080 00000-0 48985-4 0 9999 2 43137 97.5175 15.7093 0008328 322.5355 37.5300 15.23007357 45702 TianYi 2 1 43155U 18008A 18312.89450628 .00001034 00000-0 65949-4 0 9997 2 43155 97.5125 24.8333 0018482 12.1200 100.3397 15.10787583 44333 Zhou Enlai 1 43156U 18008B 18312.86329605 .00001089 00000-0 70307-4 0 9999 2 43156 97.5177 24.7379 0015210 11.1146 80.2043 15.10268115 44311 TianYi 6 1 43158U 18008D 18312.79298885 .00000675 00000-0 45463-4 0 9993 2 43158 97.5122 24.3883 0014407 8.3711 111.1539 15.09938989 44272 S-Net G 1 43186U 18014G 18312.78332454 -.00000129 00000-0 -62391-5 0 9997 2 43186 97.7167 219.3220 0012078 34.3244 325.8756 14.96531891 41949 S-Net H 1 43187U 18014H 18312.71629879 -.00000110 00000-0 -45424-5 0 9999 2 43187 97.7165 219.2496 0012090 34.5772 325.6234 14.96532867 41936 S-Net J 1 43188U 18014J 18312.71615182 -.00000102 00000-0 -38665-5 0 9992 2 43188 97.7168 219.2588 0012088 34.6433 325.5574 14.96533583 41936 S-Net K 1 43189U 18014K 18312.85008949 -.00000135 00000-0 -67337-5 0 9999 2 43189 97.7165 219.3802 0012074 34.0714 326.1280 14.96532300 40504 FMN 1 1 43192U 18015A 18312.64102937 .00002355 00000-0 10168-3 0 9995 2 43192 097.3731 078.7698 0017506 000.5079 359.6173 15.23366598042509 Shaonian Xing 1 43199U 18015H 18312.61198554 .00001693 00000-0 72332-4 0 9995 2 43199 097.3524 078.2963 0018416 012.3439 347.8254 15.24104135042538 1KUNS-PF 1 43466U 98067NP 18312.44386588 .00013802 00000-0 18017-3 0 9998 2 43466 51.6409 16.0180 0000912 4.9984 355.1018 15.58982553 28174 UBAKUSAT 1 43467U 98067NQ 18312.42262534 .00009599 00000-0 13197-3 0 9993 2 43467 51.6404 16.6286 0002664 323.8091 36.2721 15.58017194 28179 Irazu 1 43468U 98067NR 18312.40392906 .00017218 00000-0 21689-3 0 9991 2 43468 051.6406 015.7522 0001002 003.3550 356.7450 15.59730793128167 EnduroSat One 1 43551U 98067NZ 18312.43634172 .00011043 00000-0 15607-3 0 9994 2 43551 051.6399 018.2062 0006935 032.0335 328.1078 15.57073737018385 EQUISat 1 43552U 98067PA 18312.44509939 .00009612 00000-0 13819-3 0 9990 2 43552 051.6406 018.2668 0007104 033.2810 326.8627 15.56787125018340 UiTMSat 1 1 43589U 98067PD 18312.48843289 .00010184 00000-0 14805-3 0 9995 2 43589 051.6404 018.5522 0006511 041.0257 319.1223 15.56409179014087 Maya 1 1 43590U 98067PE 18312.48682235 .00010056 00000-0 14614-3 0 9995 2 43590 051.6403 018.5420 0006583 041.9991 318.1505 15.56435203014010 Bhutan 1 1 43591U 98067PF 18312.48457557 .00010363 00000-0 15015-3 0 9990 2 43591 051.6403 018.5272 0006701 042.9209 317.2304 15.56477115014016 SiriusSat 1 1 43595U 98067PG 18312.57520019 .00009499 00000-0 14067-3 0 9992 2 43595 051.6404 018.3780 0004097 359.7867 000.3122 15.56004407013206 SiriusSat 2 1 43596U 98067PH 18312.51871782 .00009614 00000-0 14308-3 0 9990 2 43596 051.6412 018.7593 0004776 001.6312 358.4694 15.55849487013197 Tanusha-3 1 43597U 98067PJ 18312.44660274 .00012467 00000-0 18124-3 0 9995 2 43597 051.6393 019.0113 0004364 013.1246 346.9858 15.56177245013185 SurfSat 1 43614U 18070B 18312.90836332 .00003354 00000-0 94011-4 0 9997 2 43614 93.0302 271.9763 0019777 78.1677 282.1792 15.36459537 8343 CP-7 DAVE 1 43615U 18070C 18312.90811349 .00003283 00000-0 92038-4 0 9997 2 43615 93.0292 271.9775 0019781 78.9987 281.3487 15.36460592 8347 ELFIN-B 1 43616U 18070D 18312.64475931 -.00000006 00000-0 00000 0 0 9996 2 43616 93.0278 271.8425 0020108 87.7202 272.6874 15.36567993 8308 ELFIN-A 1 43617U 18070E 18312.38320352 -.00000006 00000-0 00000 0 0 9994 2 43617 93.0346 271.7785 0019834 84.6485 275.7402 15.36602474 8266 STARS-Me Mother 1 43640U 98067PQ 18312.49755802 .00006939 00000-0 10855-3 0 9991 2 43640 051.6409 019.3631 0005989 350.8411 009.2470 15.54990778005114 CubeBel 1 1 43666U 18083E 18312.84337819 .00001232 00000-0 65515-4 0 9997 2 43666 97.5397 333.6649 0013877 236.9528 224.8624 15.17108249 1649 Changshagaoxin 1 43669U 18083H 18312.84006938 .00001158 00000-0 63055-4 0 9999 2 43669 97.5257 333.6348 0009670 225.8618 190.2539 15.16396785 1606 Ten-Koh 1 43677U 18084G 18312.76031623 .00000148 00000-0 21172-4 0 9991 2 43677 97.8364 63.2117 0014700 297.2127 62.7590 14.90092615 1566 Diwata-2 1 43678U 18084H 18312.88450936 .00000376 00000-0 43170-4 0 9992 2 43678 97.8358 63.3668 0009136 325.9759 34.0874 14.91507846 1586 /EX
